Regional Weather Roundup
Issued by NWS

Home | Current Version | Previous Version | Text Only | Print | Product List | Glossary Off
Versions: 1 2 3 4 5 6 7 8 9 10 11 12 13 14 15 16 17 18 19 20 21 22 23 24 25 26 27 28 29 30 31 32 33 34 35 36 37 38 39 40 41 42 43 44 45 46 47 48 49 50

000
ASUS43 KIND 181309
RWRIN

WEATHER ROUNDUP FOR INDIANA
NATIONAL WEATHER SERVICE INDIANAPOLIS IN
900 AM EDT THU SEP 18 2014

NOTE: "FAIR" INDICATES FEW OR NO CLOUDS BELOW 12,000 FEET WITH NO
SIGNIFICANT WEATHER AND/OR OBSTRUCTIONS TO VISIBILITY.

* - STATION DOES NOT REPORT WEATHER SUCH AS PRECIPITATION OR FOG.

+ - STATION NOT QUALITY CONTROLLED BY THE NATIONAL WEATHER SERVICE.
    USE DATA WITH CAUTION...ESPECIALLY DEWPOINT AND RELATIVE
    HUMIDITY OBSERVATIONS.

INZ001>003-010>013-019-020-181400-
NORTHWEST INDIANA

CITY           SKY/WX    TMP DP  RH WIND       PRES   REMARKS
GARY /AIRPORT/ MOSUNNY   54  54 100 CALM      30.12  FOG
KNOX *+        SUNNY     45  44  95 CALM      30.11R
LA PORTE +     SUNNY     50  49  98 CALM      30.13R
MICHIGAN CITY+ SUNNY     46  46 100 CALM      30.13R
MONTICELLO +   SUNNY     51  49  92 CALM      30.10R
VALPARAISO     SUNNY     51  46  83 NE3       30.12R

$$

LMZ046-743>745-181400-
SOUTHERN LAKE MICHIGAN

STATION/POSITION TIME  TEMP WIND        PRES
                       AIR  DIR/SP/G
                 (UTC) (F)  (DEG/KT/KT) (MB)
MICHIGAN CITY    1300   56   80/  7/ 10   N/A

$$

INZ004-005-014>016-021>024-181400-
NORTH CENTRAL INDIANA

CITY           SKY/WX    TMP DP  RH WIND       PRES   REMARKS
ELKHART        SUNNY     48  46  93 CALM      30.13R
GOSHEN         SUNNY     50  48  93 CALM      30.12R FOG
LOGANSPORT +   SUNNY     50  46  87 CALM      30.11R
PERU/GRISSOM   SUNNY     50  50 100 NE6       30.10R
ROCHESTER +    SUNNY     50  48  93 NE3       30.11R FOG
SOUTH BEND     SUNNY     51  46  83 CALM      30.13R
WARSAW +       SUNNY     50  48  93 NE3       30.11R

$$

INZ006>009-017-018-025>027-181400-
NORTHEAST INDIANA

CITY           SKY/WX    TMP DP  RH WIND       PRES   REMARKS
ANGOLA *+      SUNNY     52  46  82 NE6       30.11R
AUBURN +       SUNNY     52  46  82 NE3       30.11R
FORT WAYNE     SUNNY     52  48  86 N5        30.11R
HUNTINGTON +   SUNNY     49  48  97 NE5       30.10R

$$

INZ028-029-035-036-043>045-051>053-181400-
WEST CENTRAL INDIANA

CITY           SKY/WX    TMP DP  RH WIND       PRES   REMARKS
GREENCASTLE +  SUNNY     52  48  87 CALM      30.09R
LAFAYETTE      SUNNY     50  49  96 SW3       30.10R
TERRE HAUTE    SUNNY     55  52  89 CALM      30.09R FOG

$$

INZ030>032-037>040-046>048-054>057-064-065-181400-
CENTRAL INDIANA

CITY           SKY/WX    TMP DP  RH WIND       PRES   REMARKS
ANDERSON       SUNNY     50  50 100 CALM      30.10
CP ATTERBURY + SUNNY     50  50 100 CALM      30.09R FOG
FRANKFORT +    SUNNY    N/A N/A N/A CALM      30.09S
GREENWOOD *+   SUNNY     54  54 100 CALM      30.09
INDIANAPOLIS   MOSUNNY   57  49  74 CALM      30.08R
-EAGLE CREEK   SUNNY     57  49  74 N3        30.08R
KOKOMO *+      SUNNY     50 N/A N/A NE3       30.10R
MARION +       SUNNY     48  47  99 NE3       30.10R FOG
MT COMFORT *+  SUNNY     50 N/A N/A NE3       30.08R
SHELBYVILLE    SUNNY     55  51  86 CALM      30.07R FOG
ZIONSVILLE +   SUNNY     50  48  92 CALM      30.09R

$$

INZ033-034-041-042-049-050-058-059-181400-
EAST CENTRAL INDIANA

CITY           SKY/WX    TMP DP  RH WIND       PRES   REMARKS
MUNCIE         SUNNY     51  48  89 CALM      30.09R

$$

INZ060-061-067>069-081>083-085>088-181400-
SOUTHWEST INDIANA

CITY           SKY/WX    TMP DP  RH WIND       PRES   REMARKS
EVANSVILLE     CLOUDY    61  53  75 NE8       30.05R
WASHINGTON +   CLOUDY    54  54  97 CALM      30.05S

$$

INZ062-063-066-070>080-084-089>092-181400-
SOUTH CENTRAL AND SOUTHEAST INDIANA

CITY           SKY/WX    TMP DP  RH WIND       PRES   REMARKS
BLOOMINGTON    SUNNY     56  52  86 CALM      30.07S

$$



USA.gov is the U.S. government's official web portal to all federal, state and local government web resources and services.